Burlington, NC

11:16 PM EST on November 22, 2017 (GMT -0500)
Burlington-Alamance Regional

Weather History for KBUY - January, 2013

Change the Weather History Date:

Wednesday, January 9, 2013

  Actual Average Record
Temperature  
Mean Temperature 48 °F -  
Max Temperature 64 °F 46 °F 50 °F (2016)
Min Temperature 33 °F 26 °F 3 °F (2017)
Degree Days  
Heating Degree Days 16    
Moisture  
Dew Point 42 °F    
Average Humidity 80    
Maximum Humidity 96    
Minimum Humidity 58    
Precipitation  
Precipitation 0.00 in - - ()
Sea Level Pressure  
Sea Level Pressure 30.39 in    
Wind  
Wind Speed 2 mph (SW)    
Max Wind Speed 8 mph    
Max Gust Speed -    
Visibility 9 miles    
Events      
Averages and records for this station are not official NWS values.
T = Trace of Precipitation, MM = Missing Value Source: NWS Daily Summary

Daily Weather History Graph

Daily Weather History Graph

Search for Another Location

Airport or City:

Trip Planner

Search our weather history database for the weather conditions in past years. The results will help you decide how hot, cold, wet, or windy it might be!

Date:

Astronomy

Jan. 09, 2013 Rise Set
Actual Time 7:28 AM EST 5:21 PM EST
Civil Twilight 7:00 AM EST 5:49 PM EST
Nautical Twilight 6:29 AM EST 6:21 PM EST
Astronomical Twilight 5:58 AM EST 6:52 PM EST
Moon 5:06 AM EST (1/9) 3:21 PM EST (1/9)
Length of Visible Light 10h 49m
Length of Day
9h 52m
Waning Crescent, 6% of the Moon is Illuminated
Jan 9
Waning Crescent
Jan 11
New
Jan 18
First Quarter
Jan 26
Full
Feb 3
Last Quarter

Hourly Weather History & Observations

Time (EST) Temp. Windchill Dew Point Humidity Pressure Visibility Wind Dir Wind Speed Gust Speed Precip Events Conditions
12:54 AM 42.1 °F - 37.0 °F 82% 30.38 in 10.0 mi Calm Calm - N/A   Clear
1:54 AM 37.9 °F 35.5 °F 35.1 °F 89% 30.38 in 10.0 mi WNW 3.5 mph - N/A   Scattered Clouds
2:54 AM 39.0 °F - 36.0 °F 89% 30.40 in 9.0 mi Calm Calm - N/A   Scattered Clouds
3:54 AM 37.0 °F - 35.1 °F 93% 30.38 in 8.0 mi Calm Calm - N/A   Partly Cloudy
4:54 AM 36.0 °F - 34.0 °F 93% 30.38 in 7.0 mi Calm Calm - N/A   Clear
5:54 AM 35.1 °F - 33.1 °F 92% 30.38 in 6.0 mi Calm Calm - N/A   Clear
6:54 AM 33.1 °F - 32.0 °F 96% 30.40 in 6.0 mi Calm Calm - N/A   Clear
7:54 AM 35.1 °F - 33.1 °F 92% 30.42 in 8.0 mi Calm Calm - N/A   Clear
8:54 AM 41.0 °F - 37.9 °F 89% 30.43 in 8.0 mi Calm Calm - N/A   Clear
9:54 AM 48.9 °F - 41.0 °F 74% 30.45 in 10.0 mi Calm Calm - N/A   Scattered Clouds
10:54 AM 52.0 °F - 42.1 °F 69% 30.45 in 10.0 mi SW 4.6 mph - N/A   Overcast
11:54 AM 57.0 °F - 45.0 °F 64% 30.40 in 10.0 mi Variable 3.5 mph - N/A   Scattered Clouds
12:54 PM 64.0 °F - 48.9 °F 58% 30.37 in 10.0 mi SSW 8.1 mph - N/A   Clear
1:54 PM 64.9 °F - 50.0 °F 58% 30.35 in 10.0 mi SSW 6.9 mph - N/A   Clear
2:54 PM 63.0 °F - 48.9 °F 60% 30.36 in 10.0 mi WSW 5.8 mph - N/A   Overcast
3:54 PM 63.0 °F - 48.9 °F 60% 30.37 in 10.0 mi WSW 4.6 mph - N/A   Mostly Cloudy
4:54 PM 61.0 °F - 48.9 °F 64% 30.37 in 10.0 mi Calm Calm - N/A   Partly Cloudy
5:54 PM 57.0 °F - 48.9 °F 74% 30.37 in 10.0 mi South 3.5 mph - N/A   Clear
6:54 PM 57.0 °F - 48.9 °F 74% 30.37 in 10.0 mi SSW 3.5 mph - N/A   Clear
7:54 PM 55.0 °F - 48.9 °F 80% 30.38 in 10.0 mi Calm Calm - N/A   Clear
8:54 PM 52.0 °F - 48.0 °F 86% 30.39 in 9.0 mi WSW 3.5 mph - N/A   Clear
9:54 PM 50.0 °F - 46.9 °F 89% 30.41 in 10.0 mi Calm Calm - N/A   Clear
10:54 PM 48.0 °F - 46.0 °F 93% 30.41 in 10.0 mi WNW 3.5 mph - N/A   Clear
11:54 PM 46.9 °F - 45.0 °F 93% 30.42 in 8.0 mi Calm Calm - N/A   Clear